Weather History for Claxton, GA

Change the Weather History Date:

Tuesday, February 5, 2013

  Actual Average (KSAV) Record (KSAV)
Temperature  
Mean Temperature 52 °F 51 °F  
Max Temperature 71 °F 62 °F 82 °F (1957)
Min Temperature 33 °F 40 °F 15 °F (1917)
Degree Days  
Heating Degree Days 13 14  
Month to date heating degree days 70  
Since 1 July heating degree days 1244  
Cooling Degree Days 0 0  
Month to date cooling degree days 0  
Year to date cooling degree days 3  
Growing Degree Days 2 (Base 50)    
Moisture  
Dew Point 44 °F    
Average Humidity 76    
Maximum Humidity 100    
Minimum Humidity 41    
Precipitation  
Precipitation 0.00 in 0.11 in 2.36 in (1960)
Month to date precipitation 0.54  
Year to date precipitation 4.23  
Sea Level Pressure  
Sea Level Pressure 30.04 in    
Wind  
Wind Speed 1 mph (WSW)    
Max Wind Speed 10 mph    
Max Gust Speed 16 mph    
Visibility 10 miles    
Events      
T = Trace of Precipitation, MM = Missing Value Source: NWS Daily Summary

Daily Weather History Graph

Daily Weather History Graph

Search for Another Location

Airport:

Trip Planner

Search our weather history database for the weather conditions in past years. The results will help you decide how hot, cold, wet, or windy it might be!

Date:

Astronomy

Feb. 05, 2013 Rise Set
Actual Time 7:18 AM EST 6:05 PM EST
Civil Twilight 6:52 AM EST 6:30 PM EST
Nautical Twilight 6:23 AM EST 6:59 PM EST
Astronomical Twilight 5:55 AM EST 7:28 PM EST
Moon 2:52 AM EST (2/5) 1:27 PM EST (2/5)
Length of Visible Light 11h 37m
Length of Day
10h 46m
Waning Crescent, 27% of the Moon is Illuminated
Feb 5
Waning Crescent
Feb 10
New
Feb 17
First Quarter
Feb 25
Full
Mar 4
Last Quarter

Hourly Weather History & Observations

Time (EST) Temp. Dew Point Humidity Pressure Visibility Wind Dir Wind Speed Gust Speed Precip Events Conditions
12:15 AM 35.6 °F 35.6 °F 100% 30.07 in 10.0 mi Calm Calm - N/A   Clear
12:35 AM 35.6 °F 35.6 °F 100% 30.06 in 10.0 mi Calm Calm - N/A   Clear
12:55 AM 35.6 °F 35.6 °F 100% 30.05 in 10.0 mi Calm Calm - N/A   Clear
1:15 AM 35.6 °F 35.6 °F 100% 30.05 in 10.0 mi Calm Calm - N/A   Clear
1:35 AM 35.6 °F 35.6 °F 100% 30.04 in 10.0 mi Calm Calm - N/A   Clear
1:55 AM 35.6 °F 35.6 °F 100% 30.04 in 10.0 mi Calm Calm - N/A   Clear
2:15 AM 33.8 °F 33.8 °F 100% 30.04 in 10.0 mi Calm Calm - N/A   Clear
2:35 AM 33.8 °F 33.8 °F 100% 30.03 in 10.0 mi Calm Calm - N/A   Clear
2:55 AM 33.8 °F 33.8 °F 100% 30.03 in 10.0 mi Calm Calm - N/A   Clear
3:15 AM 33.8 °F 33.8 °F 100% 30.03 in 10.0 mi Calm Calm - N/A   Clear
3:35 AM 33.8 °F 33.8 °F 100% 30.03 in 10.0 mi Calm Calm - N/A   Clear
3:55 AM 33.8 °F 33.8 °F 100% 30.02 in 10.0 mi Calm Calm - N/A   Clear
4:15 AM 33.8 °F 33.8 °F 100% 30.02 in 10.0 mi Calm Calm - N/A   Clear
4:35 AM 33.8 °F 33.8 °F 100% 30.02 in 10.0 mi Calm Calm - N/A   Clear
4:55 AM 33.8 °F 33.8 °F 100% 30.02 in 10.0 mi Calm Calm - N/A   Clear
5:15 AM 35.6 °F 35.6 °F 100% 30.02 in 10.0 mi Calm Calm - N/A   Clear
5:35 AM 33.8 °F 33.8 °F 100% 30.02 in 10.0 mi Calm Calm - N/A   Clear
5:55 AM 35.6 °F 35.6 °F 100% 30.04 in 10.0 mi Calm Calm - N/A   Clear
6:15 AM 35.6 °F 35.6 °F 100% 30.05 in 10.0 mi Calm Calm - N/A   Clear
6:35 AM 35.6 °F 35.6 °F 100% 30.06 in 10.0 mi Calm Calm - N/A   Clear
6:55 AM 35.6 °F 35.6 °F 100% 30.06 in 10.0 mi Calm Calm - N/A   Clear
7:15 AM 35.6 °F 35.6 °F 100% 30.06 in 10.0 mi Calm Calm - N/A   Clear
7:35 AM 35.6 °F 35.6 °F 100% 30.07 in 10.0 mi Calm Calm - N/A   Clear
7:55 AM 37.4 °F 37.4 °F 100% 30.08 in 10.0 mi Calm Calm - N/A   Clear
8:15 AM 39.2 °F 39.2 °F 100% 30.08 in 10.0 mi Calm Calm - N/A   Clear
8:35 AM 44.6 °F 42.8 °F 93% 30.08 in 10.0 mi Calm Calm - N/A   Clear
8:55 AM 48.2 °F 44.6 °F 87% 30.08 in 10.0 mi Calm Calm - N/A   Clear
9:15 AM 51.8 °F 44.6 °F 76% 30.08 in 10.0 mi Calm Calm - N/A   Clear
9:35 AM 55.4 °F 46.4 °F 72% 30.09 in 10.0 mi WSW 3.5 mph - N/A   Clear
9:55 AM 57.2 °F 46.4 °F 67% 30.10 in 10.0 mi WSW 4.6 mph - N/A   Clear
10:15 AM 59.0 °F 48.2 °F 67% 30.09 in 10.0 mi WSW 5.8 mph - N/A   Clear
10:35 AM 60.8 °F 50.0 °F 68% 30.09 in 10.0 mi Calm Calm - N/A   Clear
10:55 AM 62.6 °F 50.0 °F 63% 30.09 in 10.0 mi West 5.8 mph - N/A   Clear
11:15 AM 64.4 °F 50.0 °F 59% 30.08 in 10.0 mi West 8.1 mph - N/A   Clear
11:35 AM 66.2 °F 50.0 °F 56% 30.07 in 10.0 mi WSW 8.1 mph - N/A   Scattered Clouds
11:55 AM 66.2 °F 51.8 °F 60% 30.06 in 10.0 mi WSW 5.8 mph - N/A   Mostly Cloudy
12:15 PM 68.0 °F 51.8 °F 56% 30.05 in 10.0 mi West 8.1 mph - N/A   Scattered Clouds
12:35 PM 69.8 °F 51.8 °F 53% 30.05 in 10.0 mi WSW 6.9 mph - N/A   Scattered Clouds
12:55 PM 68.0 °F 50.0 °F 52% 30.03 in 10.0 mi WNW 10.4 mph 16.1 mph N/A   Scattered Clouds
1:15 PM 69.8 °F 50.0 °F 49% 30.02 in 10.0 mi WSW 6.9 mph - N/A   Scattered Clouds
1:35 PM 69.8 °F 50.0 °F 49% 30.01 in 10.0 mi WSW 6.9 mph - N/A   Scattered Clouds
1:55 PM 71.6 °F 46.4 °F 41% 30.00 in 10.0 mi West 8.1 mph 16.1 mph N/A   Scattered Clouds
2:15 PM 71.6 °F 46.4 °F 41% 30.00 in 10.0 mi West 10.4 mph - N/A   Clear
2:35 PM 71.6 °F 46.4 °F 41% 30.00 in 10.0 mi West 5.8 mph - N/A   Clear
2:55 PM 71.6 °F 46.4 °F 41% 30.00 in 10.0 mi West 5.8 mph - N/A   Clear
3:15 PM 71.6 °F 46.4 °F 41% 29.99 in 10.0 mi West 3.5 mph - N/A   Clear
3:35 PM 71.6 °F 48.2 °F 43% 29.99 in 10.0 mi WSW 8.1 mph - N/A   Clear
3:55 PM 71.6 °F 48.2 °F 43% 29.99 in 10.0 mi West 10.4 mph - N/A   Clear
4:15 PM 71.6 °F 48.2 °F 43% 29.99 in 10.0 mi West 5.8 mph - N/A   Clear
4:35 PM 71.6 °F 48.2 °F 43% 29.99 in 10.0 mi West 8.1 mph - N/A   Clear
4:55 PM 71.6 °F 48.2 °F 43% 29.98 in 10.0 mi SW 4.6 mph - N/A   Clear
5:15 PM 69.8 °F 48.2 °F 46% 29.98 in 10.0 mi West 4.6 mph - N/A   Clear
5:35 PM 69.8 °F 48.2 °F 46% 29.98 in 10.0 mi WSW 3.5 mph - N/A   Clear
5:55 PM 68.0 °F 50.0 °F 52% 29.99 in 10.0 mi Calm Calm - N/A   Clear
6:15 PM 62.6 °F 50.0 °F 63% 29.99 in 10.0 mi Calm Calm - N/A   Clear
6:35 PM 62.6 °F 50.0 °F 63% 30.00 in 10.0 mi Calm Calm - N/A   Scattered Clouds
6:55 PM 60.8 °F 50.0 °F 68% 30.00 in 10.0 mi Calm Calm - N/A   Mostly Cloudy
7:15 PM 60.8 °F 50.0 °F 68% 30.00 in 10.0 mi Calm Calm - N/A   Overcast
7:35 PM 60.8 °F 50.0 °F 68% 30.01 in 10.0 mi Calm Calm - N/A   Overcast
7:55 PM 60.8 °F 50.0 °F 68% 30.02 in 10.0 mi Calm Calm - N/A   Overcast
8:15 PM 60.8 °F 50.0 °F 68% 30.02 in 10.0 mi Calm Calm - N/A   Mostly Cloudy
8:35 PM 60.8 °F 50.0 °F 68% 30.02 in 10.0 mi Calm Calm - N/A   Mostly Cloudy
8:55 PM 59.0 °F 50.0 °F 72% 30.02 in 10.0 mi Calm Calm - N/A   Scattered Clouds
9:15 PM 55.4 °F 50.0 °F 82% 30.03 in 10.0 mi Calm Calm - N/A   Clear
9:35 PM 55.4 °F 50.0 °F 82% 30.04 in 10.0 mi Calm Calm - N/A   Clear
9:55 PM 55.4 °F 50.0 °F 82% 30.05 in 10.0 mi Calm Calm - N/A   Clear
10:15 PM 53.6 °F 50.0 °F 88% 30.05 in 10.0 mi Calm Calm - N/A   Clear
10:35 PM 53.6 °F 50.0 °F 88% 30.05 in 10.0 mi Calm Calm - N/A   Clear
10:55 PM 51.8 °F 50.0 °F 94% 30.05 in 10.0 mi Calm Calm - N/A   Scattered Clouds
11:15 PM 51.8 °F 50.0 °F 94% 30.05 in 10.0 mi Calm Calm - N/A   Scattered Clouds
11:35 PM 51.8 °F 50.0 °F 94% 30.05 in 10.0 mi Calm Calm - N/A   Clear
11:55 PM 50.0 °F 50.0 °F 100% 30.05 in 10.0 mi Calm Calm - N/A   Clear